Location: Hancock Field Station
(44.9202°N, 120.4259°W)
Time: 10:26:42
(UTC-07:00)

Nadezhda 4 Rocket - Visible Passes

Search period start: 30 October 2014 00:00
Search period end: 08 November 2014 23:00
Orbit: 949 x 993 km, 82.9° (Epoch: 28 October)

Date Brightness Start Highest point End Pass type
(mag) Time Alt. Az. Time Alt. Az. Time Alt. Az.
30 Oct 6.5 03:07:34 10° NNE 03:10:47 14° ENE 03:14:01 10° E visible
30 Oct 3.9 04:50:51 10° N 04:57:05 83° E 05:03:21 10° S visible
30 Oct 5.3 06:38:01 10° NW 06:41:31 16° W 06:45:03 10° WSW visible
30 Oct 5.0 18:22:10 10° SSW 18:28:05 51° WNW 18:34:03 10° N visible
31 Oct 5.9 03:30:33 10° NNE 03:35:30 24° ENE 03:40:27 10° ESE visible
31 Oct 3.9 05:15:08 10° NNW 05:21:12 58° W 05:27:19 10° S visible
31 Oct 5.9 18:47:13 10° SW 18:52:30 30° WNW 18:57:51 10° N visible
01 Nov 5.8 03:54:11 10° N 04:04:30 17° SE 04:05:51 10° SE visible
01 Nov 5.6 05:39:41 10° NNW 05:49:19 16° SW 05:50:41 10° SSW visible
01 Nov 6.5 19:13:05 10° WSW 19:17:07 18° WNW 19:21:12 10° NNW visible
02 Nov 6.2 03:18:08 10° N 03:18:50 14° N 03:18:50 14° N visible
02 Nov 7.0 18:41:18 10° WNW 18:41:57 10° WNW 18:42:36 10° NW visible
03 Nov 5.6 17:14:04 10° SW 17:19:39 37° WNW 17:25:18 10° N visible
04 Nov 6.3 17:39:34 10° WSW 17:44:12 22° WNW 17:48:53 10° NNW visible
05 Nov 6.7 18:06:15 10° W 18:08:56 13° WNW 18:11:39 10° NW visible
07 Nov 6.1 17:06:13 10° SW 17:11:18 27° WNW 17:16:27 10° NNW visible
08 Nov 6.5 17:32:19 10° W 17:35:58 16° WNW 17:39:39 10° NNW visible
